2023/05/22 23:33:26+0000,-32.52,-48.14,-38.08,-41.00,-50.41,-54.37
2023/05/22 23:34:18+0000,-32.55,-47.99,-38.42,-43.86,-50.49,-54.69
2023/05/22 23:35:10+0000,-33.17,-47.97,-38.90,-42.05,-51.12,-54.46
2023/05/22 23:36:02+0000,-33.34,-48.22,-38.49,-41.47,-49.44,-54.50
2023/05/22 23:36:54+0000,-32.72,-47.49,-38.22,-41.76,-50.91,-54.65
2023/05/22 23:37:46+0000,-33.33,-48.18,-38.12,-41.58,-50.99,-54.71
2023/05/22 23:38:38+0000,-33.32,-48.50,-38.34,-42.05,-49.22,-54.32
2023/05/22 23:39:30+0000,-32.64,-47.59,-38.47,-42.23,-50.53,-54.25
2023/05/22 23:40:22+0000,-32.80,-47.67,-38.42,-41.97,-51.12,-54.49
2023/05/22 23:41:21+0000,-33.53,-48.40,-38.57,-42.51,-49.65,-54.00
2023/05/22 23:42:13+0000,-33.30,-47.67,-38.82,-41.76,-49.67,-54.20
2023/05/22 23:43:05+0000,-33.67,-48.55,-38.79,-42.40,-50.78,-55.09
2023/05/22 23:43:57+0000,-32.81,-48.56,-38.09,-43.99,-50.55,-54.54
2023/05/22 23:44:49+0000,-32.97,-48.30,-37.70,-43.33,-50.79,-54.56
2023/05/22 23:45:41+0000,-33.55,-48.18,-37.93,-42.94,-49.94,-54.72
2023/05/22 23:46:33+0000,-33.76,-47.83,-38.12,-42.76,-50.08,-54.08
2023/05/22 23:47:25+0000,-33.08,-47.80,-38.58,-41.56,-50.90,-54.26
2023/05/22 23:48:17+0000,-33.60,-47.64,-38.57,-41.78,-49.70,-54.33
2023/05/22 23:49:09+0000,-32.75,-47.54,-37.76,-42.96,-50.24,-54.74
2023/05/22 23:50:02+0000,-32.92,-47.97,-38.34,-42.47,-48.98,-54.18
2023/05/22 23:51:00+0000,-32.71,-48.35,-38.49,-42.65,-48.92,-54.98
2023/05/22 23:51:52+0000,-32.89,-47.35,-38.17,-42.76,-48.46,-54.54
2023/05/22 23:52:44+0000,-33.89,-47.73,-38.39,-42.54,-49.05,-53.77
2023/05/22 23:53:36+0000,-33.12,-47.18,-38.02,-43.59,-48.58,-54.66
2023/05/22 23:54:28+0000,-33.11,-47.34,-38.47,-43.18,-49.06,-54.96
2023/05/22 23:55:20+0000,-32.10,-47.36,-38.51,-43.71,-48.63,-54.01
2023/05/22 23:56:12+0000,-31.75,-46.98,-38.27,-42.31,-49.53,-54.26
2023/05/22 23:57:04+0000,-33.05,-47.18,-37.75,-42.10,-49.62,-53.79
2023/05/22 23:57:56+0000,-32.61,-45.93,-38.39,-42.57,-50.18,-54.00
2023/05/22 23:58:48+0000,-33.13,-47.22,-37.87,-42.14,-49.69,-54.04
2023/05/22 23:59:41+0000,-33.15,-47.33,-38.37,-41.81,-48.92,-53.66
2023/05/23 00:00:33+0000,-32.97,-46.72,-38.03,-43.69,-49.70,-54.00
2023/05/23 00:01:34+0000,-33.48,-47.30,-38.56,-43.70,-49.41,-54.00
2023/05/23 00:02:26+0000,-32.81,-47.24,-38.60,-44.03,-49.51,-54.00
2023/05/23 00:03:18+0000,-33.67,-47.38,-37.88,-44.00,-49.84,-53.86
2023/05/23 00:04:10+0000,-33.80,-47.13,-38.46,-43.03,-49.62,-53.96
2023/05/23 00:05:02+0000,-33.00,-47.68,-38.53,-41.07,-49.33,-54.72
2023/05/23 00:05:54+0000,-32.75,-48.03,-38.50,-43.47,-49.54,-54.91
2023/05/23 00:06:46+0000,-33.14,-47.42,-38.16,-42.31,-49.78,-54.28
2023/05/23 00:07:38+0000,-33.39,-47.19,-38.40,-42.87,-50.26,-53.57
2023/05/23 00:08:30+0000,-33.68,-47.42,-38.31,-41.65,-49.27,-53.95
2023/05/23 00:09:22+0000,-33.29,-46.74,-39.03,-39.59,-50.45,-53.98
2023/05/23 00:10:14+0000,-33.01,-45.61,-38.66,-41.61,-50.12,-54.64
2023/05/23 00:11:14+0000,-32.85,-45.34,-38.55,-40.86,-50.20,-54.00
2023/05/23 00:12:06+0000,-33.06,-45.63,-38.57,-42.16,-50.42,-54.68
2023/05/23 00:12:58+0000,-32.87,-47.50,-38.38,-43.39,-49.77,-54.87
2023/05/23 00:13:50+0000,-32.93,-47.90,-38.52,-42.64,-50.40,-54.18
2023/05/23 00:14:42+0000,-32.86,-46.04,-38.37,-41.83,-49.64,-54.11
2023/05/23 00:15:34+0000,-33.13,-46.00,-38.84,-41.99,-49.28,-54.24
2023/05/23 00:16:26+0000,-32.77,-45.83,-38.79,-40.85,-49.50,-53.90
2023/05/23 00:17:18+0000,-33.78,-46.61,-38.17,-40.99,-49.55,-54.01
2023/05/23 00:18:10+0000,-32.89,-47.05,-37.90,-39.26,-49.92,-54.00
2023/05/23 00:19:02+0000,-34.33,-46.65,-38.14,-41.75,-49.72,-53.90
2023/05/23 00:19:54+0000,-33.34,-47.87,-38.26,-43.25,-49.96,-54.04
2023/05/23 00:20:46+0000,-33.33,-46.60,-38.02,-41.53,-50.13,-53.74
2023/05/23 00:21:45+0000,-33.06,-46.94,-37.90,-41.30,-50.05,-53.74
2023/05/23 00:22:37+0000,-33.17,-45.69,-37.94,-41.81,-46.40,-50.27
2023/05/23 00:23:29+0000,-33.62,-45.82,-38.65,-42.10,-47.36,-50.35
2023/05/23 00:24:21+0000,-34.19,-46.23,-38.63,-41.95,-47.71,-50.60
2023/05/23 00:25:13+0000,-33.66,-46.45,-38.48,-42.12,-48.35,-50.89
2023/05/23 00:26:05+0000,-33.82,-46.66,-38.88,-41.83,-48.72,-50.69
2023/05/23 00:26:57+0000,-32.87,-47.44,-38.81,-38.86,-48.58,-51.19
2023/05/23 00:27:49+0000,-33.78,-46.01,-38.95,-39.34,-49.90,-51.86
2023/05/23 00:28:41+0000,-33.21,-46.00,-38.69,-39.53,-50.31,-51.46
2023/05/23 00:29:33+0000,-34.13,-45.16,-38.37,-39.52,-49.93,-50.89
2023/05/23 00:30:25+0000,-33.52,-46.37,-38.49,-41.73,-49.91,-50.28
2023/05/23 00:31:24+0000,-33.20,-47.20,-38.16,-41.90,-50.15,-50.57
2023/05/23 00:32:16+0000,-33.52,-47.14,-38.28,-40.02,-49.66,-51.17
2023/05/23 00:33:08+0000,-33.69,-45.88,-38.52,-40.57,-50.33,-52.09
2023/05/23 00:34:00+0000,-33.37,-46.96,-38.41,-42.21,-50.88,-52.02
2023/05/23 00:34:52+0000,-34.07,-47.67,-38.83,-41.03,-50.55,-51.51
2023/05/23 00:35:44+0000,-33.18,-45.02,-38.35,-39.26,-50.45,-51.34
2023/05/23 00:36:36+0000,-33.33,-47.09,-38.57,-41.69,-50.48,-52.07
2023/05/23 00:37:28+0000,-33.43,-47.84,-39.05,-42.44,-50.75,-52.92
2023/05/23 00:38:20+0000,-33.27,-46.74,-38.37,-41.36,-51.05,-51.91
2023/05/23 00:39:12+0000,-33.70,-46.06,-38.04,-39.09,-49.98,-51.24
2023/05/23 00:40:04+0000,-32.94,-47.25,-38.53,-42.74,-50.77,-51.88
2023/05/23 00:41:03+0000,-33.96,-47.38,-38.47,-38.69,-50.92,-52.35
2023/05/23 00:41:55+0000,-34.38,-47.55,-38.12,-41.20,-51.93,-52.14
2023/05/23 00:42:47+0000,-32.70,-47.47,-38.06,-37.36,-50.70,-51.58
2023/05/23 00:43:39+0000,-34.05,-48.01,-37.99,-38.58,-50.52,-51.90
2023/05/23 00:44:31+0000,-33.75,-47.53,-37.48,-40.71,-51.56,-52.18
2023/05/23 00:45:23+0000,-34.22,-46.19,-37.55,-39.81,-50.97,-52.64
2023/05/23 00:46:15+0000,-32.89,-46.50,-38.17,-37.98,-50.95,-52.99
2023/05/23 00:47:07+0000,-34.02,-44.30,-38.20,-38.75,-50.26,-51.75
2023/05/23 00:47:59+0000,-33.14,-44.06,-37.82,-39.31,-50.18,-52.31
2023/05/23 00:48:51+0000,-33.56,-44.71,-38.19,-38.87,-49.79,-52.04
2023/05/23 00:49:43+0000,-33.83,-45.73,-38.02,-37.36,-50.55,-52.09
2023/05/23 00:50:35+0000,-32.95,-45.47,-37.77,-39.35,-50.04,-52.50
2023/05/23 00:51:34+0000,-33.07,-44.99,-38.00,-40.15,-50.96,-52.02
2023/05/23 00:52:26+0000,-33.48,-48.05,-37.66,-40.26,-52.13,-52.48
2023/05/23 00:53:18+0000,-33.34,-44.94,-37.76,-41.36,-51.63,-52.18
2023/05/23 00:54:10+0000,-33.68,-47.95,-37.48,-42.10,-51.70,-52.04
2023/05/23 00:55:02+0000,-33.96,-44.61,-37.54,-38.64,-50.37,-52.34
2023/05/23 00:55:54+0000,-32.99,-44.40,-37.83,-40.52,-50.29,-50.64
2023/05/23 00:56:46+0000,-33.37,-48.11,-38.30,-38.92,-49.93,-50.97
2023/05/23 00:57:38+0000,-33.27,-47.70,-37.57,-40.79,-50.30,-50.68
2023/05/23 00:58:30+0000,-33.47,-47.31,-38.29,-40.80,-50.30,-51.44
2023/05/23 00:59:22+0000,-33.10,-47.59,-37.66,-40.72,-52.02,-52.23
2023/05/23 01:00:14+0000,-33.98,-47.80,-37.66,-39.04,-51.80,-51.91
2023/05/23 01:01:14+0000,-33.31,-47.49,-38.49,-39.30,-51.74,-52.15
2023/05/23 01:02:06+0000,-34.40,-47.12,-38.59,-39.36,-51.03,-51.64
2023/05/23 01:02:58+0000,-33.51,-47.55,-38.43,-40.72,-50.46,-52.27
2023/05/23 01:03:50+0000,-32.80,-48.96,-39.07,-40.28,-51.53,-52.19
2023/05/23 01:04:42+0000,-33.24,-47.83,-38.72,-38.86,-51.70,-51.80
2023/05/23 01:05:34+0000,-33.78,-47.21,-38.24,-40.21,-51.88,-51.77
2023/05/23 01:06:26+0000,-34.18,-47.79,-37.80,-41.06,-52.59,-52.44
2023/05/23 01:07:18+0000,-33.50,-47.39,-38.19,-40.51,-50.88,-51.77
2023/05/23 01:08:10+0000,-32.82,-47.87,-38.56,-39.56,-51.66,-51.59
2023/05/23 01:09:02+0000,-33.46,-47.00,-37.72,-41.18,-52.23,-52.53
2023/05/23 01:09:54+0000,-33.60,-49.11,-38.13,-41.72,-51.02,-52.18
2023/05/23 01:10:46+0000,-33.35,-47.61,-37.99,-39.54,-51.20,-51.87
2023/05/23 01:11:45+0000,-33.83,-48.01,-37.95,-39.15,-51.58,-50.84
2023/05/23 01:12:37+0000,-33.89,-48.93,-37.70,-39.74,-49.89,-51.30
2023/05/23 01:13:29+0000,-34.05,-47.98,-38.59,-41.37,-50.34,-51.25
2023/05/23 01:14:21+0000,-33.82,-47.76,-37.73,-41.15,-49.34,-51.29
2023/05/23 01:15:13+0000,-33.90,-47.91,-38.57,-39.60,-49.47,-51.43
2023/05/23 01:16:05+0000,-33.95,-47.85,-38.82,-41.04,-48.47,-51.65
2023/05/23 01:16:57+0000,-33.45,-48.24,-38.49,-41.68,-48.84,-51.78
2023/05/23 01:17:49+0000,-33.49,-47.61,-38.14,-41.31,-49.80,-50.99
2023/05/23 01:18:41+0000,-33.70,-47.32,-37.98,-39.12,-49.59,-51.30
2023/05/23 01:19:33+0000,-34.01,-46.71,-38.87,-40.66,-49.52,-51.45
2023/05/23 01:20:25+0000,-33.92,-47.21,-38.62,-40.23,-50.11,-51.24
2023/05/23 01:21:24+0000,-34.12,-47.33,-38.17,-41.78,-48.43,-51.50
2023/05/23 01:22:16+0000,-33.72,-46.26,-37.76,-39.06,-49.95,-51.93
2023/05/23 01:23:08+0000,-33.27,-47.35,-38.44,-39.44,-48.25,-51.65
2023/05/23 01:24:00+0000,-33.82,-46.40,-38.63,-39.17,-50.14,-51.92
2023/05/23 01:24:52+0000,-33.28,-47.38,-38.06,-39.96,-50.52,-51.97
2023/05/23 01:25:44+0000,-33.44,-47.86,-38.38,-37.32,-50.82,-51.65
2023/05/23 01:26:36+0000,-33.23,-48.03,-38.70,-38.72,-48.42,-51.58
2023/05/23 01:27:28+0000,-33.30,-47.06,-37.78,-39.74,-49.15,-51.68
2023/05/23 01:28:20+0000,-32.91,-46.85,-36.90,-39.11,-49.58,-51.56
2023/05/23 01:29:12+0000,-33.24,-47.62,-37.65,-37.61,-49.65,-51.00
2023/05/23 01:30:04+0000,-33.55,-46.61,-38.07,-40.74,-50.01,-51.92
2023/05/23 01:31:03+0000,-33.53,-46.51,-37.59,-39.02,-50.09,-51.89
2023/05/23 01:31:55+0000,-33.45,-46.33,-37.76,-38.86,-50.14,-51.77
2023/05/23 01:32:47+0000,-33.28,-47.28,-37.77,-37.90,-49.14,-52.01
2023/05/23 01:33:39+0000,-34.20,-46.64,-38.21,-37.81,-50.46,-50.73
2023/05/23 01:34:31+0000,-32.87,-46.72,-37.86,-38.72,-50.27,-52.13
2023/05/23 01:35:24+0000,-33.93,-46.93,-38.18,-39.14,-50.65,-52.42
2023/05/23 01:36:16+0000,-33.39,-46.14,-37.90,-38.27,-51.04,-52.45
2023/05/23 01:37:08+0000,-34.53,-46.10,-38.33,-38.25,-49.94,-52.02
2023/05/23 01:38:00+0000,-33.08,-46.65,-38.02,-39.88,-50.37,-52.48
2023/05/23 01:38:52+0000,-33.77,-46.79,-37.59,-39.47,-50.32,-51.87
2023/05/23 01:39:44+0000,-33.55,-47.25,-37.61,-38.98,-50.81,-52.17
2023/05/23 01:40:36+0000,-33.42,-47.06,-38.02,-38.97,-50.76,-50.93
2023/05/23 01:41:35+0000,-33.13,-46.86,-38.23,-39.21,-51.58,-51.99
2023/05/23 01:42:27+0000,-33.91,-46.57,-38.43,-40.29,-50.07,-50.40
2023/05/23 01:43:19+0000,-33.58,-47.45,-38.10,-40.54,-51.23,-51.01
2023/05/23 01:44:11+0000,-33.24,-47.26,-38.04,-38.34,-50.02,-50.84
2023/05/23 01:45:03+0000,-33.34,-46.82,-38.14,-40.22,-50.50,-50.83
2023/05/23 01:45:55+0000,-33.96,-47.72,-37.94,-40.41,-49.62,-51.83
2023/05/23 01:46:47+0000,-33.89,-47.39,-37.67,-37.70,-50.07,-51.83
2023/05/23 01:47:39+0000,-33.59,-48.13,-37.82,-39.86,-49.85,-51.07
2023/05/23 01:48:31+0000,-33.04,-47.61,-36.74,-39.78,-50.02,-51.88
2023/05/23 01:49:23+0000,-33.34,-47.21,-37.24,-38.42,-50.53,-51.57
2023/05/23 01:50:15+0000,-33.59,-46.57,-37.16,-37.69,-49.99,-50.76
2023/05/23 01:51:18+0000,-33.69,-47.16,-37.29,-37.62,-49.72,-51.34
2023/05/23 01:52:10+0000,-33.14,-47.35,-37.81,-38.81,-50.62,-51.23
2023/05/23 01:53:02+0000,-33.62,-48.08,-37.52,-40.40,-50.23,-51.92
2023/05/23 01:53:55+0000,-33.30,-47.55,-37.81,-39.98,-49.96,-52.06
2023/05/23 01:54:47+0000,-33.28,-48.16,-37.96,-38.55,-50.89,-51.94
2023/05/23 01:55:39+0000,-33.51,-47.16,-37.87,-38.73,-50.57,-51.36
2023/05/23 01:56:31+0000,-32.57,-46.82,-38.36,-40.11,-50.64,-52.13
2023/05/23 01:57:23+0000,-33.52,-47.93,-37.98,-40.53,-50.75,-51.51
2023/05/23 01:58:15+0000,-33.47,-48.48,-38.52,-41.99,-50.03,-52.09
2023/05/23 01:59:07+0000,-32.88,-48.43,-37.95,-42.73,-50.68,-51.68
2023/05/23 01:59:59+0000,-33.19,-44.37,-37.96,-39.79,-50.44,-51.67
2023/05/23 02:00:51+0000,-33.08,-45.33,-37.85,-40.16,-50.00,-51.73
2023/05/23 02:01:50+0000,-33.48,-45.45,-38.04,-39.48,-50.49,-51.55
2023/05/23 02:02:42+0000,-33.37,-45.67,-38.29,-40.10,-49.81,-51.37
2023/05/23 02:03:34+0000,-33.30,-44.95,-38.04,-39.98,-50.41,-51.10
2023/05/23 02:04:26+0000,-34.22,-44.88,-38.57,-40.30,-49.63,-50.98
2023/05/23 02:05:18+0000,-33.80,-45.09,-38.02,-40.30,-49.66,-51.52
2023/05/23 02:06:10+0000,-33.44,-45.57,-37.99,-39.89,-49.51,-50.45
2023/05/23 02:07:02+0000,-33.53,-45.52,-38.22,-40.51,-49.85,-51.13
2023/05/23 02:07:54+0000,-34.29,-44.49,-38.06,-40.29,-49.63,-50.82
2023/05/23 02:08:46+0000,-33.63,-46.21,-37.74,-43.05,-50.85,-50.32
2023/05/23 02:09:38+0000,-33.20,-47.21,-37.87,-42.08,-50.68,-50.62
2023/05/23 02:10:31+0000,-32.96,-48.32,-37.42,-43.91,-49.32,-50.66
2023/05/23 02:11:30+0000,-33.06,-45.69,-37.78,-43.49,-49.49,-50.67
2023/05/23 02:12:22+0000,-32.54,-47.64,-37.70,-43.64,-49.65,-50.87
2023/05/23 02:13:14+0000,-33.29,-46.90,-38.16,-42.86,-50.05,-50.83
2023/05/23 02:14:06+0000,-33.26,-46.75,-38.21,-42.93,-49.66,-51.05
2023/05/23 02:14:58+0000,-33.53,-46.79,-38.30,-42.60,-49.92,-51.10
2023/05/23 02:15:50+0000,-33.19,-46.99,-38.08,-41.46,-49.75,-49.32
2023/05/23 02:16:42+0000,-33.11,-46.61,-38.87,-42.33,-49.45,-48.93
2023/05/23 02:17:34+0000,-33.46,-46.91,-37.52,-43.91,-49.95,-50.76
2023/05/23 02:18:26+0000,-32.63,-47.15,-37.90,-41.83,-50.14,-50.56
2023/05/23 02:19:18+0000,-32.92,-45.97,-37.84,-43.08,-49.68,-51.57
2023/05/23 02:20:10+0000,-32.77,-46.38,-37.67,-42.33,-50.06,-51.90
2023/05/23 02:21:10+0000,-33.38,-46.65,-37.78,-42.35,-49.58,-51.98
2023/05/23 02:22:02+0000,-33.39,-47.14,-37.31,-43.02,-49.72,-51.79
2023/05/23 02:22:54+0000,-32.47,-47.46,-37.72,-42.84,-49.82,-52.04
2023/05/23 02:23:46+0000,-32.64,-45.70,-38.05,-42.97,-50.08,-51.97
2023/05/23 02:24:38+0000,-32.91,-46.60,-37.24,-43.31,-50.22,-51.60
2023/05/23 02:25:30+0000,-33.61,-46.68,-37.43,-42.28,-49.79,-51.77
2023/05/23 02:26:22+0000,-33.46,-47.91,-37.70,-41.77,-49.90,-51.30
2023/05/23 02:27:14+0000,-33.04,-46.82,-37.93,-42.73,-49.98,-51.52
2023/05/23 02:28:06+0000,-32.56,-46.71,-37.75,-42.60,-49.66,-51.10
2023/05/23 02:28:58+0000,-32.68,-45.55,-38.21,-42.78,-49.39,-51.31
2023/05/23 02:29:50+0000,-33.76,-47.37,-37.82,-43.45,-49.24,-52.16
2023/05/23 02:30:43+0000,-32.94,-46.16,-37.55,-42.91,-49.15,-51.60
2023/05/23 02:31:41+0000,-33.15,-47.04,-37.12,-42.60,-48.97,-51.49
2023/05/23 02:32:33+0000,-33.28,-44.43,-37.52,-43.56,-49.38,-51.92
2023/05/23 02:33:25+0000,-33.04,-46.28,-37.33,-43.19,-48.92,-51.76
2023/05/23 02:34:17+0000,-32.94,-46.82,-38.11,-40.73,-50.04,-51.34
2023/05/23 02:35:09+0000,-33.39,-46.13,-37.40,-41.06,-48.85,-50.90
2023/05/23 02:36:01+0000,-33.24,-44.61,-37.85,-44.67,-49.83,-50.42
2023/05/23 02:36:53+0000,-33.30,-47.87,-37.42,-43.70,-49.69,-51.15
2023/05/23 02:37:45+0000,-33.68,-46.42,-37.50,-40.32,-49.50,-50.92
2023/05/23 02:38:38+0000,-33.63,-47.03,-37.70,-41.38,-49.53,-50.52
2023/05/23 02:39:30+0000,-33.29,-45.14,-38.13,-42.90,-49.42,-50.97
2023/05/23 02:40:22+0000,-33.84,-46.01,-37.80,-43.64,-49.35,-50.55
2023/05/23 02:41:22+0000,-33.00,-47.47,-38.05,-43.25,-50.09,-50.76
2023/05/23 02:42:14+0000,-32.88,-46.50,-38.20,-41.63,-49.33,-51.18
2023/05/23 02:43:06+0000,-33.22,-46.58,-37.55,-41.24,-48.62,-50.59
2023/05/23 02:43:58+0000,-32.84,-46.19,-37.98,-43.10,-48.99,-51.40
2023/05/23 02:44:50+0000,-33.67,-46.87,-38.46,-43.51,-49.73,-50.90
2023/05/23 02:45:42+0000,-33.39,-46.12,-37.90,-41.23,-49.31,-51.14
2023/05/23 02:46:34+0000,-33.10,-44.98,-37.98,-44.18,-50.24,-51.46
2023/05/23 02:47:26+0000,-33.51,-46.18,-38.11,-42.60,-49.29,-51.15
2023/05/23 02:48:18+0000,-33.49,-46.66,-37.89,-40.94,-49.16,-50.38
2023/05/23 02:49:10+0000,-32.99,-45.68,-38.13,-44.15,-49.98,-50.67
2023/05/23 02:50:02+0000,-34.21,-45.86,-38.20,-43.84,-49.35,-50.34
2023/05/23 02:51:02+0000,-33.81,-45.39,-37.61,-42.18,-48.98,-51.04
2023/05/23 02:51:54+0000,-33.11,-46.45,-37.84,-42.40,-49.37,-50.58
2023/05/23 02:52:46+0000,-32.93,-42.49,-37.47,-43.25,-48.98,-51.07
2023/05/23 02:53:38+0000,-33.00,-46.74,-37.85,-43.51,-48.64,-50.99
2023/05/23 02:54:30+0000,-33.09,-45.63,-38.04,-43.38,-49.23,-50.51
2023/05/23 02:55:22+0000,-33.38,-46.45,-38.26,-42.90,-48.55,-50.64
2023/05/23 02:56:14+0000,-33.26,-45.54,-37.93,-40.85,-49.49,-51.18
2023/05/23 02:57:06+0000,-32.83,-45.24,-37.08,-44.53,-49.06,-50.52
2023/05/23 02:57:58+0000,-33.61,-44.97,-37.88,-42.58,-49.08,-51.07
2023/05/23 02:58:50+0000,-32.92,-43.25,-37.53,-43.68,-49.44,-50.87
2023/05/23 02:59:42+0000,-33.34,-46.53,-37.90,-40.60,-49.42,-50.67
2023/05/23 03:00:34+0000,-33.31,-45.38,-37.48,-43.31,-49.19,-50.94
2023/05/23 03:01:34+0000,-33.93,-45.46,-37.80,-44.26,-49.18,-51.02
2023/05/23 03:02:26+0000,-33.35,-45.35,-37.73,-42.75,-49.06,-51.22
2023/05/23 03:03:18+0000,-33.08,-45.47,-36.64,-43.57,-49.67,-51.07
2023/05/23 03:04:10+0000,-33.33,-45.72,-37.26,-41.62,-49.36,-49.85
2023/05/23 03:05:02+0000,-33.69,-45.33,-37.81,-42.68,-49.77,-51.19
2023/05/23 03:05:54+0000,-33.80,-44.35,-38.29,-41.53,-49.60,-50.08
2023/05/23 03:06:46+0000,-33.24,-45.62,-37.60,-40.82,-49.78,-50.67
2023/05/23 03:07:38+0000,-33.34,-45.39,-37.79,-41.13,-49.69,-51.55
2023/05/23 03:08:30+0000,-33.17,-42.38,-37.41,-42.71,-49.87,-50.83
2023/05/23 03:09:22+0000,-33.17,-45.84,-37.73,-41.57,-48.94,-50.62
2023/05/23 03:10:14+0000,-33.71,-46.04,-37.33,-40.41,-49.43,-50.02
2023/05/23 03:11:13+0000,-33.58,-46.37,-37.90,-40.88,-49.10,-50.34
2023/05/23 03:12:06+0000,-34.15,-46.95,-37.74,-40.87,-50.12,-50.58
2023/05/23 03:12:58+0000,-34.18,-44.75,-37.73,-42.17,-49.92,-51.37
2023/05/23 03:13:50+0000,-34.01,-45.21,-38.49,-44.06,-49.57,-51.32
2023/05/23 03:14:42+0000,-32.71,-44.80,-38.38,-40.58,-49.49,-50.38
2023/05/23 03:15:34+0000,-34.10,-45.44,-37.33,-43.50,-49.62,-51.04
2023/05/23 03:16:26+0000,-33.52,-44.47,-37.60,-42.91,-50.14,-51.37
2023/05/23 03:17:18+0000,-34.11,-45.16,-37.37,-40.20,-49.75,-51.39
2023/05/23 03:18:10+0000,-33.64,-44.47,-37.32,-41.30,-50.20,-51.21
2023/05/23 03:19:02+0000,-33.60,-44.43,-37.17,-43.00,-50.44,-51.24
2023/05/23 03:19:54+0000,-32.28,-45.36,-37.38,-43.72,-49.85,-50.77
2023/05/23 03:20:46+0000,-33.21,-44.56,-37.80,-42.32,-49.91,-51.09
2023/05/23 03:21:45+0000,-33.84,-44.59,-37.87,-42.88,-50.24,-51.07
2023/05/23 03:22:37+0000,-33.10,-45.57,-36.85,-42.49,-49.71,-51.01
2023/05/23 03:23:29+0000,-33.39,-45.38,-37.58,-42.55,-50.91,-51.15
2023/05/23 03:24:21+0000,-32.94,-46.84,-37.86,-42.75,-50.37,-51.32
2023/05/23 03:25:13+0000,-33.02,-45.40,-37.91,-41.56,-50.82,-51.26
2023/05/23 03:26:05+0000,-32.91,-45.90,-36.94,-43.39,-50.96,-50.98
2023/05/23 03:26:57+0000,-33.59,-44.67,-37.52,-43.42,-50.17,-51.22
2023/05/23 03:27:49+0000,-34.01,-44.39,-37.22,-44.08,-50.76,-51.69
2023/05/23 03:28:41+0000,-33.95,-45.01,-36.47,-43.15,-50.44,-53.26
2023/05/23 03:29:33+0000,-33.74,-44.13,-37.61,-44.25,-50.78,-53.02
2023/05/23 03:30:25+0000,-33.31,-44.13,-37.44,-43.56,-50.67,-52.89
2023/05/23 03:31:24+0000,-33.88,-44.57,-37.55,-43.37,-51.29,-52.63
2023/05/23 03:32:16+0000,-33.55,-43.82,-37.18,-43.02,-51.14,-53.01
2023/05/23 03:33:08+0000,-33.32,-44.37,-37.17,-43.34,-51.13,-53.02
2023/05/23 03:34:00+0000,-33.69,-44.97,-37.56,-43.87,-51.55,-53.01
2023/05/23 03:34:52+0000,-33.42,-46.00,-37.62,-43.76,-51.72,-53.11
2023/05/23 03:35:44+0000,-33.53,-44.54,-37.21,-42.98,-51.68,-52.89
2023/05/23 03:36:36+0000,-32.87,-45.69,-37.83,-43.25,-51.35,-52.43
2023/05/23 03:37:28+0000,-33.37,-45.77,-37.93,-42.74,-50.72,-53.75
2023/05/23 03:38:20+0000,-32.63,-43.75,-37.49,-44.58,-51.11,-52.61
2023/05/23 03:39:12+0000,-33.20,-44.44,-37.34,-43.66,-51.03,-52.59
2023/05/23 03:40:05+0000,-32.53,-44.09,-37.80,-43.53,-51.45,-52.69
2023/05/23 03:41:08+0000,-33.70,-45.64,-37.98,-43.21,-51.65,-52.30
2023/05/23 03:42:00+0000,-33.22,-45.04,-37.59,-43.62,-51.57,-53.04
2023/05/23 03:42:52+0000,-33.37,-46.64,-37.63,-43.16,-51.18,-53.15
2023/05/23 03:43:44+0000,-32.83,-44.52,-37.43,-42.90,-51.59,-53.07
2023/05/23 03:44:36+0000,-33.34,-44.85,-37.77,-41.16,-51.07,-52.84
2023/05/23 03:45:28+0000,-32.52,-43.89,-37.64,-42.45,-51.10,-52.94
2023/05/23 03:46:20+0000,-32.95,-44.09,-37.24,-43.50,-51.78,-53.11
2023/05/23 03:47:12+0000,-32.77,-44.47,-37.19,-42.97,-51.36,-53.94
2023/05/23 03:48:04+0000,-32.52,-45.20,-38.35,-42.27,-51.61,-53.38
2023/05/23 03:48:56+0000,-33.64,-44.76,-37.95,-42.54,-51.68,-52.72
2023/05/23 03:49:48+0000,-32.91,-44.68,-37.73,-43.02,-51.19,-52.93
2023/05/23 03:50:40+0000,-33.29,-45.64,-37.74,-43.43,-51.83,-52.77
2023/05/23 03:51:39+0000,-33.30,-45.01,-37.54,-41.54,-51.47,-52.92
2023/05/23 03:52:31+0000,-32.55,-44.09,-37.79,-41.90,-51.23,-53.43
2023/05/23 03:53:23+0000,-33.03,-45.26,-38.41,-40.65,-50.68,-52.82
2023/05/23 03:54:15+0000,-32.66,-44.99,-37.91,-41.58,-50.79,-53.40
2023/05/23 03:55:07+0000,-32.77,-45.00,-38.07,-41.81,-51.08,-53.17
2023/05/23 03:55:59+0000,-32.25,-43.20,-38.35,-42.63,-51.25,-52.61
2023/05/23 03:56:51+0000,-32.45,-44.55,-38.01,-41.55,-51.88,-53.32
2023/05/23 03:57:43+0000,-33.57,-43.15,-37.94,-41.94,-51.17,-53.22
2023/05/23 03:58:35+0000,-32.48,-44.79,-37.58,-42.01,-51.72,-53.40
2023/05/23 03:59:27+0000,-31.93,-43.50,-37.52,-42.09,-51.62,-53.55
2023/05/23 04:00:20+0000,-32.70,-43.23,-37.08,-43.69,-51.71,-53.04
2023/05/23 04:01:19+0000,-32.33,-43.99,-37.64,-43.76,-51.43,-52.82
2023/05/23 04:02:11+0000,-32.10,-43.08,-37.57,-43.17,-51.92,-52.70
2023/05/23 04:03:03+0000,-32.90,-44.32,-37.61,-44.10,-51.42,-53.47
2023/05/23 04:03:55+0000,-32.51,-44.42,-37.86,-43.45,-52.09,-52.92
2023/05/23 04:04:47+0000,-33.05,-44.41,-37.62,-44.49,-51.38,-52.76
2023/05/23 04:05:39+0000,-32.41,-43.08,-37.70,-43.63,-51.01,-52.74
2023/05/23 04:06:31+0000,-34.14,-43.87,-37.38,-43.64,-51.53,-53.07
2023/05/23 04:07:23+0000,-33.60,-45.33,-37.80,-42.68,-50.88,-53.06
2023/05/23 04:08:15+0000,-33.99,-42.98,-37.98,-43.02,-51.20,-52.62
2023/05/23 04:09:07+0000,-33.66,-43.54,-37.56,-42.92,-51.00,-52.90
2023/05/23 04:09:59+0000,-34.12,-44.54,-38.20,-42.96,-50.75,-53.67
2023/05/23 04:10:51+0000,-33.94,-45.70,-37.70,-43.87,-51.06,-52.67
2023/05/23 04:11:51+0000,-33.45,-45.33,-38.17,-42.76,-50.87,-53.11
2023/05/23 04:12:43+0000,-34.04,-43.25,-38.31,-42.99,-51.12,-52.94
2023/05/23 04:13:35+0000,-33.98,-44.36,-38.16,-43.13,-50.22,-52.19
2023/05/23 04:14:27+0000,-33.65,-43.97,-38.48,-43.57,-50.36,-53.35
2023/05/23 04:15:19+0000,-33.48,-44.43,-37.54,-43.50,-50.51,-53.40
2023/05/23 04:16:11+0000,-33.63,-44.08,-37.77,-43.49,-51.02,-53.61
2023/05/23 04:17:03+0000,-33.29,-44.03,-38.43,-43.14,-50.94,-53.43
2023/05/23 04:17:55+0000,-33.25,-43.94,-37.23,-42.68,-51.40,-53.62
2023/05/23 04:18:47+0000,-32.95,-43.02,-38.15,-43.47,-51.16,-53.36
2023/05/23 04:19:39+0000,-34.00,-43.59,-38.23,-43.34,-51.01,-53.83
2023/05/23 04:20:31+0000,-32.78,-44.01,-37.53,-43.34,-50.89,-53.08
2023/05/23 04:21:30+0000,-34.49,-43.25,-37.59,-43.76,-50.18,-53.87
2023/05/23 04:22:22+0000,-33.29,-44.84,-37.84,-42.75,-50.77,-53.19
2023/05/23 04:23:14+0000,-33.19,-43.46,-37.97,-43.23,-51.40,-53.28
2023/05/23 04:24:06+0000,-33.62,-45.68,-37.99,-42.73,-49.80,-53.97
2023/05/23 04:24:58+0000,-32.30,-43.75,-37.94,-43.38,-51.03,-53.56
2023/05/23 04:25:50+0000,-33.10,-43.33,-37.12,-43.51,-50.84,-53.49
2023/05/23 04:26:42+0000,-33.59,-43.72,-38.19,-43.58,-51.02,-53.23
2023/05/23 04:27:34+0000,-33.08,-44.19,-37.81,-43.57,-51.39,-53.47
2023/05/23 04:28:26+0000,-33.15,-44.91,-37.57,-43.44,-49.91,-54.14
2023/05/23 04:29:18+0000,-32.50,-43.30,-36.95,-43.38,-50.44,-53.53
2023/05/23 04:30:10+0000,-33.29,-43.85,-37.68,-42.66,-50.37,-53.34
2023/05/23 04:31:10+0000,-32.85,-44.17,-38.06,-43.76,-50.62,-53.21
2023/05/23 04:32:02+0000,-33.32,-42.84,-37.92,-43.55,-50.55,-52.82
2023/05/23 04:32:54+0000,-32.67,-43.38,-36.95,-44.06,-50.21,-53.18
2023/05/23 04:33:46+0000,-33.17,-43.54,-37.60,-43.84,-50.56,-53.41
2023/05/23 04:34:38+0000,-33.46,-45.10,-37.57,-44.98,-49.70,-53.57
2023/05/23 04:35:30+0000,-32.62,-43.52,-37.99,-43.77,-49.65,-53.66
2023/05/23 04:36:22+0000,-33.45,-44.92,-36.80,-43.40,-50.09,-53.37
2023/05/23 04:37:14+0000,-32.69,-43.53,-37.70,-43.74,-49.58,-53.60
2023/05/23 04:38:06+0000,-34.01,-43.84,-38.18,-44.22,-48.79,-53.60
2023/05/23 04:38:58+0000,-33.30,-43.47,-37.87,-43.86,-48.93,-54.26
2023/05/23 04:39:50+0000,-33.76,-42.79,-37.48,-44.68,-49.33,-53.99
2023/05/23 04:40:42+0000,-33.93,-44.15,-37.43,-43.78,-49.30,-54.09
2023/05/23 04:41:41+0000,-33.25,-42.62,-37.92,-44.19,-49.46,-53.19
2023/05/23 04:42:33+0000,-33.37,-40.49,-37.76,-44.66,-48.99,-53.73
2023/05/23 04:43:25+0000,-33.29,-43.73,-37.47,-44.34,-49.27,-53.70
2023/05/23 04:44:17+0000,-33.50,-42.65,-37.91,-43.52,-49.07,-54.07
2023/05/23 04:45:09+0000,-33.79,-41.34,-38.19,-41.69,-48.68,-52.80
2023/05/23 04:46:01+0000,-33.83,-43.30,-38.21,-42.00,-48.95,-53.39
2023/05/23 04:46:53+0000,-32.69,-45.48,-37.92,-40.97,-48.06,-53.41